GSAT0234 (GALILEO 34)

Last updated on Sat Apr 11 2026 00:02:39 GMT+0000 (Coordinated Universal Time)

1 67162U 25302C 26099.30668338 .00000046 00000+0 00000+0 0 9995 2 67162 54.2899 104.0907 0003962 286.6364 256.2709 1.70474875 2003
UTC large
Height (km)
Speed (km/s)
/
Latitude / Longitude
Inclination (degrees)
Orbital Period (minutes)
Azimuth
Elevation
Range (km)
Doppler Factor

Next 0 passes for location: London (51.5072 / 0.1276)

Sorry there are no passes over London.
GSAT0234 (GALILEO 34)